This is the latest recevied weather packets stored in our database for station/object SV2BZQ-2. If no packets are shown the sender has not sent any weather packets the latest 1 day(s).
| Time | Temp. | Humidity | Pressure | Rain* | Wind** | Luminosity | Snow |
|---|---|---|---|---|---|---|---|
| 1778050042 | 17.78° C | 76% | 1014.3 hPa | 0 mm | - | 489 W/m² | - |
| 1778049957 | 17.78° C | 77% | 1014.3 hPa | 0 mm | - | 512 W/m² | - |
| 1778049817 | 17.78° C | 77% | 1014.3 hPa | 0 mm | - | 547 W/m² | - |
| 1778049609 | 17.22° C | 78% | 1014.3 hPa | 0 mm | - | 536 W/m² | - |
| 1778049416 | 17.22° C | 79% | 1014.4 hPa | 0 mm | - | 517 W/m² | - |
| 1778049073 | 16.67° C | 80% | 1014.4 hPa | 0 mm | - | 501 W/m² | - |
| 1778048540 | 16.67° C | 82% | 1014.5 hPa | 0 mm | - | 471 W/m² | - |
| 1778048417 | 16.11° C | 82% | 1014.5 hPa | 0 mm | - | 388 W/m² | - |
| 1778048138 | 16.11° C | 84% | 1014.5 hPa | 0 mm | - | 454 W/m² | - |
| 1778048036 | 16.11° C | 84% | 1014.5 hPa | 0 mm | - | 475 W/m² | - |
| 1778047910 | 15.56° C | 84% | 1014.5 hPa | 0 mm | - | 462 W/m² | - |
| 1778047701 | 15.56° C | 85% | 1014.5 hPa | 0 mm | - | 466 W/m² | - |
| 1778047285 | 15° C | 85% | 1014.4 hPa | 0 mm | - | 432 W/m² | - |
| 1778046743 | 14.44° C | 86% | 1014.4 hPa | 0 mm | - | 388 W/m² | - |
| 1778046596 | 14.44° C | 86% | 1014.3 hPa | 0 mm | - | 390 W/m² | - |
| 1778046070 | 13.89° C | 87% | 1014.3 hPa | 0 mm | - | 274 W/m² | - |
| 1778045855 | 13.33° C | 87% | 1014.3 hPa | 0 mm | - | 294 W/m² | - |
| 1778045570 | 13.33° C | 87% | 1014.3 hPa | 0 mm | - | 227 W/m² | - |
| 1778045309 | 13.33° C | 88% | 1014.3 hPa | 0 mm | - | 156 W/m² | - |
| 1778045226 | 13.33° C | 88% | 1014.3 hPa | 0 mm | - | 151 W/m² | - |
| 1778045112 | 13.33° C | 88% | 1014.3 hPa | 0 mm | - | 118 W/m² | - |
| 1778044873 | 13.33° C | 88% | 1014.3 hPa | 0 mm | - | 234 W/m² | - |
| 1778044618 | 12.78° C | 88% | 1014.4 hPa | 0 mm | - | 246 W/m² | - |
| 1778044393 | 12.78° C | 88% | 1014.5 hPa | 0 mm | - | 276 W/m² | - |
| 1778044299 | 12.78° C | 88% | 1014.4 hPa | 0 mm | - | 258 W/m² | - |
* Rain latest hour (hover to see other rain measurements)
** Current wind speed in m/s (hover to see current wind gust speed)